COSMOS 2334

Satellite information

Favourite Embed

Satellite Type and Status

PAYLOADIN ORBIT

Key statistics

Satellite COSMOS 2334 at a glance.

Uptime

10474

Days in orbit

Revolutions

≈ 13.7

Per day

Orbit

LEO

Low Earth Orbit

Inclination

82.9

Latest

Satellite identification and parameters

Extended collection of information and parameters for COSMOS 2334.

Object identification

Identified? True

Debris? False

Object name: COSMOS 2334

International designator: 1996-052A

Object number (NORAD): 24304

Object ID (CCSDS): 24304

Country: COMMONWEALTH OF INDEPENDENT STATES (CIS)

Current information (Y/N): Y

RCS size: LARGE

Orbital parameters

Period: 104.821 minutes

Inclination: 82.9376 deg

SMA: 7364.204 km

Apoapsis: 1007.204 km

Periapsis: 964.934 km

RAAN: 19.3262 deg

Eccentricy: 0.00287

Argument of periapsis: 306.6973 deg

Mean anomaly: 116.8607 deg

Mean motion: 13.73770093 rev/day

Mean motion (dot): 0.00000051 rev/day2

B* drag term: 0.000038458 1/REarth

Two-line elements (TLE)

Creation date: May 10, 2025, 2:32 a.m.

Reference frame: TEME

Reference center: EARTH

Epoch: May 9, 2025, 6:38 p.m. UTC

TLE line 0: 0 COSMOS 2334

TLE line 1: 1 24304U 96052A 25129.77639052 .00000051 00000-0 38458-4 0 9991

TLE line 2: 2 24304 82.9376 19.3262 0028700 306.6973 116.8607 13.73770093437243

Live tracking on map

Real-time ground track for satellite COSMOS 2334.

In-orbit conjunctions

A list of the most updated potential collisions computed for object COSMOS 2334.

Target Orbit TCA Probability of collision Miss distance Type
CZ-6A DEB LEO 2025-03-15 12:01:05 0.0001862614 741.0 (m) DEBRIS
COSMOS 1275 DEB LEO 2024-10-31 06:55:12 0.0001748466 460.0 (m) DEBRIS
COSMOS 1275 DEB LEO 2024-09-25 22:42:50 0.000147458 273.0 (m) DEBRIS

Associated space launch

Navigation satellite providing location information for the Tsiklon-B navigation system

COSMOS 2334 was lifted into orbit during the mission ‘Kosmos-3M | Parus 86’, on board a Kosmos-3M space rocket.

The launch took place on Sept. 5, 1996, 12:47 p.m. from 132/1 (132L).

For more information about the launch, click the button.

Launch to space Kosmos-3M | Parus 86
Kosmos-3M | Parus 86

Agency: N/A

Status: Launch Successful

Launch date: Sept. 5, 1996, 12:47 p.m. UTC

Rocket: Kosmos-3M

Launch pad: 132/1 (132L)

Location: Plesetsk Cosmodrome, Russian Federation

...

Latest news about this satellite

There are no fresh news available about this satellite. Check back as we update our databases every day.


Newsletter sign-up

Weekly statistics, charts and insights to help you stay on top of the space industry.